Voltar ao catálogo

THORAD DELTA 1 DEB

AtivoSSO
NORAD 8563·DEBRIS·🇺🇸 United States

Lançado Nov 15, 1974 de Vandenberg Space Force Base

Loading…

Próximas Passagens (próximas 24 horas)

TLE

AtualizadoSource: Space-Track

Época: Sep 14, 2026, 05:00 UTC

1 08563U 74089DA  26257.20871994  .00000058  00000-0  62534-3 0  9998
2 08563 101.4087 348.4977 0078766  17.3196  11.1030 12.53644965367252

Acompanhe THORAD DELTA 1 DEB em tempo real com AllMySat

Download on the App Store